GEFSSGP_prec_meanprecacc_120.txt.gz
Total_Precipitation_Accumulation
0.00 0.00 0.00 0.00 0.00 0.00 0.00 0.01 0.02 0.05 0.11 0.10 0.11 0.16 0.20 0.26 0.33 0.71 0.42 0.18 0.09 0.03 0.01 0.02 0.02 0.04 0.05 0.06 0.07 0.07 0.07 0.07 0.08 0.09 0.09 0.10 0.09 0.09 0.09 0.09 0.12 0.18 0.21 0.20 0.18 0.18 0.19 0.17 0.11
0.00 0.00 0.00 0.00 0.00 0.00 0.01 0.02 0.03 0.05 0.10 0.12 0.11 0.14 0.18 0.21 0.16 0.10 0.08 0.09 0.09 0.03 0.01 0.01 0.03 0.03 0.04 0.04 0.06 0.08 0.09 0.07 0.07 0.08 0.08 0.09 0.08 0.08 0.08 0.09 0.13 0.19 0.24 0.24 0.22 0.20 0.19 0.15 0.10
0.00 0.00 0.00 0.00 0.00 0.00 0.02 0.03 0.04 0.04 0.07 0.11 0.18 0.25 0.26 0.24 0.21 0.12 0.09 0.08 0.09 0.03 0.01 0.01 0.02 0.03 0.04 0.04 0.05 0.08 0.09 0.08 0.08 0.08 0.08 0.09 0.09 0.09 0.10 0.11 0.12 0.15 0.20 0.19 0.15 0.13 0.13 0.13 0.09
0.00 0.00 0.00 0.00 0.00 0.00 0.01 0.04 0.04 0.04 0.07 0.10 0.18 0.33 0.31 0.27 0.25 0.19 0.14 0.13 0.09 0.04 0.01 0.01 0.03 0.04 0.05 0.06 0.07 0.08 0.08 0.09 0.10 0.11 0.12 0.13 0.12 0.11 0.13 0.16 0.17 0.16 0.17 0.16 0.13 0.12 0.11 0.12 0.08
0.00 0.00 0.00 0.00 0.00 0.00 0.01 0.03 0.06 0.05 0.07 0.11 0.18 0.37 0.48 0.46 0.47 0.41 0.24 0.20 0.19 0.10 0.04 0.02 0.04 0.06 0.08 0.09 0.11 0.13 0.14 0.14 0.15 0.16 0.18 0.17 0.15 0.16 0.16 0.18 0.19 0.18 0.18 0.16 0.15 0.16 0.14 0.11 0.08
0.00 0.00 0.00 0.00 0.00 0.00 0.01 0.02 0.05 0.07 0.08 0.10 0.21 0.44 0.81 0.77 0.59 0.62 0.51 0.34 0.28 0.16 0.08 0.05 0.05 0.07 0.12 0.15 0.18 0.19 0.17 0.15 0.16 0.19 0.21 0.18 0.15 0.14 0.14 0.14 0.16 0.18 0.20 0.20 0.14 0.10 0.08 0.06 0.07
0.00 0.00 0.00 0.00 0.01 0.01 0.01 0.03 0.05 0.06 0.08 0.14 0.27 0.50 0.88 0.92 0.73 0.73 0.72 0.50 0.42 0.28 0.13 0.09 0.07 0.07 0.15 0.22 0.20 0.19 0.16 0.16 0.18 0.22 0.25 0.21 0.16 0.12 0.11 0.14 0.15 0.16 0.16 0.13 0.08 0.05 0.03 0.03 0.04
0.00 0.00 0.00 0.00 0.01 0.02 0.03 0.04 0.05 0.09 0.13 0.24 0.31 0.49 0.90 1.02 0.88 0.71 0.66 0.54 0.47 0.41 0.22 0.16 0.14 0.14 0.17 0.18 0.19 0.18 0.17 0.17 0.19 0.21 0.20 0.16 0.11 0.10 0.10 0.10 0.11 0.11 0.13 0.13 0.09 0.05 0.04 0.04 0.03
0.00 0.00 0.00 0.00 0.01 0.02 0.04 0.06 0.06 0.07 0.12 0.23 0.22 0.45 0.80 0.88 0.81 0.78 0.73 0.60 0.50 0.41 0.33 0.26 0.21 0.19 0.19 0.16 0.12 0.13 0.13 0.14 0.12 0.11 0.12 0.10 0.12 0.17 0.17 0.11 0.12 0.15 0.16 0.13 0.08 0.06 0.05 0.04 0.04
0.00 0.00 0.00 0.00 0.01 0.01 0.03 0.05 0.07 0.08 0.09 0.17 0.31 0.44 0.59 0.77 0.86 0.89 0.90 0.76 0.66 0.58 0.50 0.42 0.35 0.27 0.25 0.22 0.20 0.17 0.12 0.11 0.08 0.11 0.09 0.11 0.32 0.42 0.34 0.32 0.25 0.23 0.18 0.12 0.11 0.09 0.07 0.06 0.06
0.00 0.00 0.00 0.00 0.00 0.01 0.01 0.02 0.05 0.08 0.16 0.20 0.39 0.69 0.69 0.76 0.93 1.11 1.09 1.00 0.99 0.89 0.62 0.51 0.53 0.41 0.45 0.46 0.34 0.33 0.27 0.26 0.19 0.29 0.30 0.38 0.52 0.49 0.47 0.50 0.38 0.29 0.24 0.20 0.21 0.16 0.11 0.10 0.14
0.00 0.00 0.00 0.00 0.00 0.01 0.01 0.02 0.04 0.08 0.25 0.30 0.42 0.67 0.94 1.01 1.18 1.13 1.16 1.22 1.15 1.19 0.98 0.72 0.61 0.53 0.55 0.65 0.52 0.51 0.46 0.44 0.39 0.47 0.38 0.49 0.63 0.70 0.72 0.83 0.71 0.62 0.54 0.47 0.40 0.34 0.25 0.23 0.24
0.00 0.00 0.00 0.00 0.00 0.00 0.01 0.03 0.05 0.06 0.09 0.28 0.42 0.56 0.85 0.88 0.95 1.07 1.24 1.52 1.60 1.52 1.31 1.05 0.79 0.71 0.70 0.77 0.76 0.73 0.69 0.67 0.75 0.81 0.66 0.68 0.67 0.79 1.00 1.06 1.17 0.97 0.95 0.86 0.73 0.60 0.55 0.47 0.40
0.00 0.00 0.00 0.00 0.00 0.00 0.02 0.03 0.07 0.05 0.06 0.13 0.24 0.36 0.64 0.73 0.90 1.13 1.31 1.62 1.91 1.85 1.55 1.35 1.17 1.00 0.86 0.79 0.82 0.79 0.74 0.81 0.91 1.06 1.01 0.95 0.92 1.07 1.37 1.42 1.40 1.25 1.26 1.28 1.28 1.15 0.95 0.78 0.74
0.00 0.00 0.00 0.00 0.00 0.00 0.01 0.03 0.03 0.05 0.06 0.09 0.14 0.28 0.44 0.72 0.85 1.21 1.50 1.66 1.86 1.70 1.74 1.66 1.55 1.37 1.11 0.91 0.91 1.00 0.96 1.00 1.07 1.25 1.33 1.30 1.23 1.41 1.48 1.74 1.73 1.58 1.55 1.49 1.42 1.55 1.51 1.25 1.08
0.00 0.00 0.00 0.01 0.00 0.00 0.00 0.03 0.05 0.06 0.06 0.07 0.13 0.26 0.37 0.58 0.74 0.95 1.25 1.47 1.86 1.83 1.69 1.68 1.52 1.33 1.35 1.25 1.28 1.26 1.38 1.52 1.52 1.57 1.80 1.86 1.77 1.80 1.78 1.81 1.84 1.78 1.77 1.95 1.98 1.90 1.87 1.80 1.59
0.00 0.00 0.00 0.01 0.00 0.00 0.00 0.04 0.12 0.06 0.04 0.06 0.10 0.23 0.42 0.41 0.51 0.63 0.93 1.17 1.46 1.49 1.54 1.60 1.63 1.50 1.41 1.53 1.78 1.78 1.82 2.12 2.28 2.23 2.45 2.44 2.28 2.25 2.29 2.31 2.37 2.28 2.30 2.26 2.18 2.25 2.20 2.12 1.92
0.00 0.00 0.01 0.01 0.00 0.00 0.01 0.03 0.11 0.09 0.06 0.08 0.10 0.19 0.39 0.41 0.54 0.73 0.87 0.99 1.25 1.34 1.43 1.56 1.76 1.85 1.73 1.76 1.96 2.25 2.40 2.55 2.88 2.90 2.89 2.93 2.97 2.97 2.98 2.90 2.91 2.83 2.69 2.56 2.52 2.44 2.24 2.12 1.90
0.00 0.00 0.00 0.01 0.01 0.00 0.01 0.05 0.08 0.11 0.11 0.16 0.21 0.25 0.34 0.49 0.71 0.90 1.07 1.17 1.36 1.56 1.80 1.77 1.82 1.99 2.16 2.38 2.38 2.54 2.85 3.22 3.43 3.56 3.62 3.61 3.53 3.50 3.34 3.21 3.19 3.03 2.84 2.67 2.56 2.44 2.33 2.06 1.83
0.00 0.00 0.01 0.01 0.01 0.01 0.04 0.10 0.14 0.16 0.17 0.22 0.31 0.33 0.34 0.42 0.64 0.95 1.12 1.33 1.53 1.70 1.90 2.01 2.07 2.38 2.82 3.21 3.63 4.01 4.24 4.25 4.40 4.42 4.36 4.22 4.07 3.91 3.68 3.61 3.45 3.19 3.01 2.78 2.54 2.38 2.33 2.12 1.94
0.00 0.00 0.01 0.02 0.03 0.05 0.08 0.21 0.27 0.27 0.29 0.32 0.36 0.37 0.42 0.51 0.67 0.86 1.08 1.36 1.56 1.71 1.92 2.06 2.33 2.96 3.75 4.12 4.44 4.99 5.27 5.05 4.82 4.62 4.49 4.39 4.37 4.31 4.07 3.94 3.68 3.39 3.07 2.79 2.54 2.33 2.21 2.13 2.01
0.00 0.01 0.01 0.02 0.03 0.08 0.10 0.26 0.42 0.45 0.47 0.41 0.44 0.49 0.54 0.61 0.73 0.91 1.12 1.35 1.63 1.92 2.00 2.17 2.68 3.43 4.08 4.55 5.07 5.58 5.79 5.79 5.64 5.19 4.71 4.26 3.91 3.72 3.60 3.47 3.30 3.06 2.75 2.52 2.31 2.11 1.98 2.01 1.91
0.01 0.00 0.01 0.02 0.04 0.07 0.09 0.24 0.54 0.64 0.68 0.66 0.64 0.61 0.57 0.58 0.76 0.89 1.03 1.23 1.41 1.67 2.03 2.29 2.83 3.52 4.19 4.87 5.50 5.89 6.09 6.05 5.66 4.89 4.13 3.69 3.40 3.11 2.88 2.73 2.61 2.45 2.27 2.09 1.97 1.89 1.78 1.70 1.60
0.00 0.01 0.01 0.02 0.04 0.08 0.08 0.20 0.60 0.89 0.98 0.98 0.87 0.82 0.71 0.58 0.63 0.75 0.93 1.02 1.28 1.54 1.83 2.25 2.57 3.19 3.86 4.43 4.94 5.10 5.26 5.20 4.77 4.30 3.79 3.41 2.99 2.50 2.14 1.94 1.81 1.70 1.61 1.59 1.57 1.53 1.47 1.41 1.35
0.01 0.02 0.06 0.11 0.14 0.15 0.12 0.24 0.64 0.97 0.97 0.89 0.85 0.82 0.77 0.61 0.59 0.79 1.01 0.95 1.16 1.46 1.81 2.19 2.59 2.98 3.48 3.98 4.43 4.67 4.78 4.59 4.12 3.70 3.30 2.86 2.42 2.02 1.68 1.48 1.38 1.33 1.29 1.23 1.24 1.24 1.19 1.17 1.16
0.01 0.02 0.10 0.18 0.22 0.26 0.27 0.49 0.84 0.96 0.89 0.77 0.73 0.68 0.67 0.64 0.63 0.74 0.90 0.96 1.17 1.38 1.67 2.02 2.36 2.68 2.88 3.07 3.39 3.60 3.74 3.59 3.27 2.80 2.36 2.08 1.83 1.58 1.37 1.23 1.15 1.02 0.89 0.87 0.90 0.93 0.95 0.95 1.01
0.02 0.03 0.04 0.07 0.10 0.25 0.52 0.76 1.07 1.04 0.87 0.82 0.76 0.69 0.69 0.68 0.65 0.70 0.82 0.92 1.14 1.42 1.67 1.92 2.07 2.22 2.38 2.49 2.54 2.59 2.69 2.59 2.35 2.09 1.81 1.55 1.30 1.10 0.96 0.86 0.78 0.74 0.67 0.64 0.67 0.71 0.74 0.77 0.83
0.02 0.03 0.04 0.08 0.17 0.33 0.60 0.93 1.20 1.35 1.24 1.06 0.86 0.78 0.71 0.71 0.68 0.69 0.75 0.82 0.91 1.04 1.31 1.52 1.64 1.72 1.78 1.83 1.87 1.89 1.89 1.82 1.72 1.57 1.38 1.16 1.00 0.85 0.72 0.61 0.54 0.54 0.55 0.55 0.51 0.53 0.56 0.59 0.64
0.03 0.04 0.07 0.10 0.13 0.29 0.60 1.12 1.36 1.61 1.64 1.36 1.04 0.91 0.87 0.84 0.75 0.70 0.70 0.69 0.73 0.77 0.93 1.13 1.27 1.31 1.38 1.44 1.41 1.36 1.41 1.37 1.29 1.24 1.15 1.00 0.89 0.78 0.69 0.61 0.57 0.54 0.49 0.46 0.46 0.45 0.48 0.53 0.55
0.05 0.06 0.09 0.17 0.18 0.22 0.53 1.32 1.72 1.83 1.71 1.39 1.19 1.06 1.01 0.90 0.77 0.68 0.62 0.56 0.59 0.65 0.70 0.80 0.90 0.91 0.95 0.99 1.00 1.05 1.09 1.11 1.05 0.96 0.86 0.72 0.63 0.59 0.56 0.50 0.50 0.49 0.46 0.43 0.42 0.39 0.38 0.38 0.39

GEFSSGP_prec_meanprecacc_126.txt.gz
Total_Precipitation_Accumulation
0.00 0.00 0.00 0.00 0.00 0.00 0.00 0.01 0.02 0.05 0.11 0.10 0.12 0.16 0.21 0.28 0.35 0.75 0.44 0.19 0.10 0.04 0.01 0.02 0.03 0.04 0.05 0.06 0.07 0.08 0.07 0.07 0.08 0.09 0.09 0.10 0.09 0.09 0.09 0.09 0.12 0.18 0.21 0.20 0.18 0.18 0.19 0.17 0.11
0.00 0.00 0.00 0.00 0.00 0.00 0.01 0.02 0.03 0.06 0.10 0.13 0.12 0.15 0.20 0.23 0.17 0.11 0.09 0.10 0.09 0.04 0.01 0.01 0.03 0.03 0.04 0.04 0.06 0.09 0.09 0.07 0.07 0.08 0.08 0.09 0.08 0.08 0.08 0.09 0.13 0.19 0.24 0.24 0.22 0.20 0.19 0.15 0.10
0.00 0.00 0.00 0.00 0.00 0.00 0.02 0.03 0.04 0.05 0.08 0.12 0.19 0.26 0.28 0.26 0.24 0.14 0.11 0.10 0.10 0.04 0.01 0.02 0.03 0.03 0.04 0.04 0.05 0.08 0.10 0.08 0.08 0.08 0.08 0.09 0.09 0.09 0.10 0.11 0.13 0.15 0.20 0.19 0.15 0.13 0.13 0.13 0.09
0.00 0.00 0.00 0.00 0.00 0.00 0.01 0.04 0.05 0.04 0.08 0.11 0.20 0.35 0.32 0.28 0.26 0.21 0.15 0.14 0.11 0.05 0.02 0.02 0.03 0.04 0.05 0.06 0.07 0.08 0.08 0.09 0.10 0.11 0.12 0.13 0.12 0.11 0.13 0.16 0.17 0.17 0.17 0.16 0.13 0.12 0.11 0.12 0.09
0.00 0.00 0.00 0.00 0.00 0.00 0.01 0.03 0.06 0.05 0.07 0.12 0.19 0.38 0.50 0.49 0.50 0.43 0.25 0.21 0.21 0.13 0.06 0.03 0.04 0.06 0.08 0.10 0.12 0.14 0.14 0.14 0.15 0.16 0.18 0.17 0.16 0.16 0.17 0.18 0.19 0.19 0.19 0.17 0.15 0.16 0.14 0.11 0.09
0.00 0.00 0.00 0.00 0.00 0.01 0.01 0.03 0.05 0.08 0.08 0.10 0.22 0.45 0.83 0.79 0.61 0.63 0.53 0.35 0.29 0.17 0.10 0.07 0.06 0.08 0.13 0.16 0.18 0.20 0.17 0.16 0.16 0.19 0.21 0.18 0.15 0.14 0.14 0.15 0.16 0.18 0.21 0.20 0.15 0.11 0.08 0.06 0.08
0.00 0.00 0.00 0.00 0.01 0.01 0.01 0.03 0.05 0.07 0.08 0.14 0.27 0.50 0.89 0.94 0.74 0.75 0.74 0.53 0.44 0.30 0.16 0.12 0.09 0.09 0.16 0.24 0.22 0.19 0.17 0.16 0.18 0.22 0.25 0.22 0.17 0.13 0.12 0.15 0.16 0.17 0.17 0.14 0.08 0.05 0.04 0.04 0.05
0.00 0.00 0.00 0.00 0.01 0.02 0.03 0.04 0.06 0.10 0.13 0.24 0.31 0.49 0.90 1.04 0.90 0.72 0.68 0.57 0.50 0.45 0.27 0.20 0.19 0.18 0.19 0.21 0.22 0.21 0.19 0.19 0.20 0.22 0.21 0.17 0.13 0.11 0.11 0.11 0.12 0.12 0.14 0.14 0.10 0.06 0.05 0.04 0.05
0.00 0.00 0.00 0.00 0.01 0.02 0.04 0.06 0.07 0.07 0.12 0.23 0.23 0.46 0.81 0.89 0.83 0.80 0.75 0.61 0.53 0.46 0.39 0.34 0.28 0.26 0.24 0.21 0.17 0.17 0.17 0.18 0.16 0.14 0.13 0.12 0.13 0.18 0.18 0.13 0.13 0.16 0.17 0.15 0.10 0.08 0.07 0.05 0.05
0.00 0.00 0.00 0.00 0.01 0.01 0.03 0.05 0.07 0.08 0.10 0.18 0.32 0.45 0.60 0.78 0.88 0.91 0.91 0.79 0.69 0.64 0.58 0.52 0.47 0.42 0.36 0.30 0.29 0.24 0.18 0.17 0.14 0.16 0.14 0.16 0.35 0.45 0.36 0.34 0.27 0.25 0.20 0.15 0.13 0.11 0.09 0.08 0.08
0.00 0.00 0.00 0.00 0.00 0.01 0.01 0.02 0.05 0.09 0.17 0.21 0.39 0.69 0.70 0.77 0.94 1.12 1.10 1.06 1.06 0.96 0.68 0.59 0.64 0.59 0.61 0.59 0.44 0.41 0.35 0.33 0.25 0.34 0.35 0.42 0.55 0.50 0.49 0.52 0.40 0.31 0.26 0.23 0.24 0.18 0.14 0.13 0.17
0.00 0.00 0.00 0.00 0.00 0.01 0.01 0.02 0.04 0.08 0.26 0.31 0.43 0.67 0.95 1.02 1.19 1.15 1.18 1.24 1.19 1.26 1.04 0.79 0.69 0.63 0.66 0.77 0.65 0.62 0.56 0.53 0.46 0.52 0.41 0.52 0.66 0.73 0.74 0.85 0.74 0.66 0.59 0.53 0.45 0.39 0.29 0.27 0.27
0.00 0.00 0.00 0.00 0.00 0.00 0.01 0.03 0.06 0.06 0.10 0.29 0.42 0.56 0.86 0.89 0.97 1.08 1.26 1.55 1.62 1.56 1.38 1.11 0.87 0.80 0.82 0.91 0.92 0.87 0.81 0.78 0.84 0.88 0.72 0.72 0.71 0.82 1.03 1.08 1.21 1.02 1.01 0.94 0.81 0.67 0.61 0.52 0.45
0.00 0.00 0.00 0.00 0.00 0.00 0.02 0.03 0.07 0.05 0.06 0.14 0.24 0.36 0.65 0.74 0.91 1.14 1.33 1.64 1.95 1.89 1.60 1.41 1.24 1.07 0.96 0.93 0.99 0.95 0.87 0.92 1.00 1.14 1.06 1.01 0.97 1.13 1.43 1.48 1.46 1.32 1.34 1.37 1.37 1.23 1.03 0.85 0.80
0.00 0.00 0.00 0.00 0.00 0.00 0.01 0.03 0.04 0.05 0.07 0.10 0.14 0.28 0.45 0.73 0.86 1.22 1.52 1.68 1.88 1.73 1.77 1.72 1.61 1.44 1.19 1.05 1.12 1.19 1.11 1.11 1.16 1.32 1.38 1.34 1.29 1.49 1.57 1.83 1.82 1.69 1.66 1.58 1.50 1.62 1.60 1.35 1.16
0.00 0.00 0.00 0.01 0.00 0.00 0.01 0.04 0.05 0.07 0.07 0.08 0.13 0.26 0.38 0.58 0.75 0.96 1.27 1.51 1.89 1.86 1.73 1.74 1.58 1.39 1.44 1.38 1.47 1.48 1.54 1.63 1.60 1.63 1.84 1.90 1.83 1.88 1.88 1.92 1.96 1.89 1.86 2.03 2.07 1.99 1.96 1.89 1.67
0.00 0.00 0.00 0.01 0.00 0.00 0.01 0.05 0.12 0.07 0.04 0.07 0.11 0.25 0.44 0.42 0.52 0.65 0.95 1.19 1.49 1.52 1.57 1.64 1.67 1.55 1.48 1.64 1.89 1.92 1.99 2.23 2.35 2.31 2.50 2.50 2.34 2.33 2.41 2.45 2.50 2.38 2.39 2.36 2.26 2.33 2.28 2.20 1.99
0.00 0.00 0.01 0.01 0.00 0.00 0.01 0.03 0.11 0.10 0.06 0.09 0.12 0.21 0.41 0.43 0.56 0.75 0.90 1.01 1.28 1.37 1.46 1.59 1.78 1.88 1.79 1.83 2.03 2.33 2.47 2.62 2.95 2.97 2.95 2.99 3.03 3.04 3.06 3.00 3.02 2.94 2.78 2.65 2.60 2.52 2.31 2.19 1.96
0.00 0.00 0.00 0.01 0.01 0.00 0.02 0.05 0.08 0.12 0.11 0.16 0.22 0.26 0.35 0.50 0.73 0.92 1.10 1.20 1.39 1.58 1.82 1.79 1.85 2.03 2.21 2.46 2.46 2.62 2.97 3.33 3.54 3.67 3.72 3.70 3.61 3.57 3.40 3.28 3.29 3.13 2.93 2.76 2.64 2.51 2.41 2.12 1.89
0.00 0.00 0.01 0.01 0.01 0.01 0.04 0.11 0.15 0.17 0.18 0.22 0.32 0.34 0.34 0.43 0.66 0.97 1.14 1.35 1.56 1.73 1.93 2.04 2.09 2.41 2.88 3.28 3.70 4.11 4.39 4.40 4.53 4.54 4.48 4.33 4.18 4.00 3.77 3.70 3.54 3.29 3.09 2.85 2.61 2.44 2.39 2.18 2.01
0.00 0.00 0.01 0.02 0.03 0.05 0.08 0.22 0.28 0.27 0.31 0.34 0.37 0.39 0.43 0.53 0.69 0.89 1.11 1.38 1.59 1.74 1.95 2.09 2.36 3.01 3.80 4.18 4.50 5.06 5.38 5.20 4.98 4.72 4.59 4.51 4.48 4.42 4.16 4.02 3.75 3.47 3.14 2.86 2.61 2.40 2.30 2.21 2.08
0.00 0.01 0.01 0.02 0.03 0.08 0.10 0.27 0.43 0.46 0.48 0.42 0.45 0.51 0.57 0.64 0.77 0.94 1.15 1.38 1.68 1.96 2.03 2.20 2.70 3.46 4.12 4.59 5.13 5.65 5.88 5.89 5.75 5.26 4.78 4.33 3.99 3.80 3.68 3.54 3.36 3.12 2.80 2.57 2.37 2.17 2.06 2.09 1.98
0.01 0.00 0.01 0.02 0.04 0.07 0.09 0.25 0.55 0.65 0.69 0.67 0.66 0.64 0.61 0.62 0.80 0.94 1.07 1.26 1.45 1.72 2.09 2.34 2.86 3.55 4.23 4.91 5.55 5.94 6.16 6.12 5.72 4.93 4.19 3.74 3.45 3.17 2.94 2.79 2.67 2.51 2.32 2.14 2.02 1.94 1.83 1.76 1.67
0.01 0.01 0.01 0.02 0.04 0.08 0.09 0.21 0.61 0.90 0.99 1.00 0.89 0.84 0.73 0.62 0.68 0.80 0.96 1.04 1.32 1.59 1.88 2.29 2.59 3.21 3.89 4.47 4.97 5.14 5.30 5.25 4.82 4.34 3.83 3.45 3.02 2.53 2.17 1.98 1.85 1.75 1.65 1.62 1.60 1.56 1.51 1.46 1.41
0.01 0.02 0.06 0.12 0.15 0.16 0.12 0.25 0.65 0.97 0.98 0.90 0.86 0.84 0.80 0.66 0.66 0.85 1.06 0.99 1.20 1.51 1.84 2.21 2.60 2.99 3.50 4.00 4.45 4.69 4.81 4.62 4.16 3.74 3.34 2.89 2.45 2.05 1.70 1.50 1.40 1.36 1.32 1.25 1.26 1.26 1.22 1.20 1.20
0.01 0.02 0.10 0.18 0.23 0.26 0.27 0.49 0.85 0.96 0.89 0.78 0.74 0.70 0.71 0.70 0.69 0.79 0.95 0.99 1.21 1.42 1.70 2.05 2.37 2.69 2.89 3.08 3.40 3.61 3.76 3.62 3.29 2.82 2.38 2.11 1.86 1.60 1.39 1.25 1.16 1.03 0.91 0.88 0.91 0.95 0.97 0.97 1.04
0.02 0.03 0.05 0.07 0.11 0.26 0.53 0.77 1.07 1.04 0.88 0.83 0.76 0.71 0.73 0.73 0.70 0.75 0.86 0.96 1.16 1.44 1.68 1.94 2.07 2.23 2.39 2.49 2.55 2.60 2.70 2.60 2.36 2.09 1.83 1.57 1.32 1.13 0.99 0.88 0.80 0.75 0.68 0.65 0.68 0.72 0.75 0.79 0.85
0.02 0.03 0.04 0.08 0.17 0.34 0.60 0.94 1.21 1.36 1.24 1.07 0.88 0.80 0.73 0.75 0.73 0.74 0.80 0.85 0.94 1.06 1.33 1.54 1.66 1.73 1.79 1.83 1.88 1.89 1.90 1.82 1.72 1.57 1.38 1.17 1.01 0.86 0.74 0.62 0.55 0.55 0.56 0.56 0.52 0.54 0.57 0.60 0.65
0.03 0.04 0.07 0.10 0.13 0.29 0.61 1.13 1.37 1.61 1.64 1.37 1.06 0.93 0.89 0.88 0.81 0.76 0.76 0.72 0.76 0.80 0.95 1.15 1.29 1.32 1.39 1.45 1.42 1.37 1.42 1.37 1.30 1.24 1.16 1.01 0.90 0.79 0.69 0.61 0.58 0.55 0.50 0.48 0.48 0.47 0.49 0.55 0.57
0.05 0.07 0.09 0.18 0.19 0.22 0.54 1.34 1.72 1.84 1.71 1.41 1.21 1.08 1.02 0.93 0.81 0.72 0.66 0.59 0.62 0.67 0.71 0.81 0.91 0.92 0.96 1.00 1.01 1.06 1.10 1.11 1.06 0.97 0.87 0.73 0.64 0.60 0.56 0.50 0.50 0.50 0.47 0.45 0.43 0.41 0.40 0.39 0.40

GEFSSGP_prec_meanprecacc_132.txt.gz
Total_Precipitation_Accumulation
0.00 0.00 0.00 0.00 0.00 0.00 0.00 0.01 0.02 0.05 0.11 0.11 0.13 0.17 0.24 0.30 0.40 0.85 0.48 0.19 0.10 0.04 0.01 0.02 0.04 0.04 0.05 0.06 0.08 0.09 0.08 0.07 0.08 0.09 0.09 0.10 0.09 0.09 0.09 0.09 0.12 0.18 0.22 0.20 0.18 0.18 0.19 0.17 0.11
0.00 0.00 0.00 0.00 0.00 0.00 0.01 0.02 0.04 0.06 0.11 0.13 0.13 0.15 0.20 0.23 0.17 0.12 0.10 0.10 0.10 0.04 0.02 0.02 0.03 0.04 0.05 0.05 0.07 0.10 0.10 0.08 0.08 0.08 0.08 0.09 0.09 0.08 0.08 0.09 0.13 0.20 0.24 0.24 0.22 0.20 0.19 0.16 0.11
0.00 0.00 0.00 0.00 0.00 0.00 0.02 0.03 0.04 0.06 0.09 0.12 0.20 0.26 0.28 0.26 0.24 0.15 0.11 0.11 0.11 0.05 0.02 0.02 0.03 0.03 0.05 0.05 0.06 0.10 0.10 0.09 0.09 0.09 0.09 0.09 0.09 0.09 0.10 0.12 0.13 0.16 0.20 0.19 0.15 0.13 0.13 0.14 0.10
0.00 0.00 0.00 0.00 0.00 0.00 0.01 0.04 0.05 0.05 0.08 0.12 0.21 0.35 0.32 0.29 0.27 0.22 0.16 0.15 0.12 0.07 0.04 0.02 0.04 0.05 0.06 0.07 0.08 0.10 0.09 0.10 0.11 0.11 0.13 0.13 0.13 0.12 0.14 0.17 0.18 0.17 0.18 0.16 0.13 0.12 0.12 0.12 0.09
0.00 0.00 0.00 0.00 0.00 0.00 0.01 0.04 0.07 0.06 0.08 0.13 0.21 0.39 0.51 0.49 0.51 0.44 0.25 0.22 0.22 0.14 0.07 0.04 0.05 0.07 0.10 0.11 0.14 0.16 0.15 0.15 0.16 0.17 0.18 0.17 0.16 0.17 0.18 0.19 0.20 0.19 0.19 0.17 0.15 0.16 0.14 0.11 0.09
0.00 0.00 0.00 0.00 0.00 0.01 0.01 0.05 0.08 0.09 0.09 0.12 0.24 0.47 0.84 0.80 0.62 0.65 0.54 0.35 0.30 0.18 0.11 0.08 0.06 0.09 0.14 0.18 0.20 0.22 0.19 0.17 0.18 0.20 0.22 0.19 0.16 0.16 0.15 0.15 0.17 0.19 0.21 0.20 0.15 0.11 0.08 0.06 0.08
0.00 0.00 0.00 0.00 0.01 0.01 0.02 0.04 0.08 0.09 0.10 0.18 0.30 0.51 0.90 0.95 0.75 0.75 0.75 0.55 0.46 0.31 0.17 0.12 0.10 0.10 0.17 0.25 0.23 0.22 0.20 0.19 0.20 0.24 0.27 0.23 0.18 0.14 0.13 0.16 0.17 0.17 0.17 0.15 0.09 0.05 0.04 0.04 0.05
0.00 0.00 0.00 0.00 0.01 0.02 0.03 0.04 0.07 0.11 0.16 0.31 0.44 0.56 0.92 1.07 0.92 0.73 0.69 0.58 0.51 0.46 0.29 0.23 0.22 0.20 0.20 0.22 0.25 0.25 0.24 0.24 0.24 0.25 0.23 0.19 0.14 0.13 0.13 0.13 0.13 0.13 0.14 0.15 0.10 0.06 0.05 0.05 0.05
0.00 0.00 0.00 0.00 0.01 0.02 0.04 0.06 0.07 0.08 0.15 0.31 0.33 0.49 0.83 0.93 0.85 0.81 0.76 0.63 0.54 0.48 0.42 0.38 0.34 0.32 0.29 0.26 0.22 0.25 0.23 0.23 0.20 0.17 0.16 0.15 0.17 0.22 0.22 0.16 0.15 0.18 0.18 0.15 0.11 0.09 0.07 0.06 0.05
0.00 0.00 0.00 0.00 0.01 0.01 0.03 0.06 0.07 0.08 0.11 0.20 0.34 0.46 0.61 0.81 0.89 0.93 0.93 0.81 0.72 0.68 0.63 0.58 0.58 0.53 0.48 0.44 0.42 0.38 0.32 0.27 0.21 0.23 0.19 0.21 0.43 0.52 0.43 0.41 0.30 0.26 0.22 0.16 0.14 0.12 0.10 0.09 0.10
0.00 0.00 0.00 0.00 0.00 0.01 0.01 0.02 0.05 0.09 0.18 0.22 0.42 0.73 0.73 0.79 0.96 1.14 1.13 1.09 1.11 1.02 0.73 0.65 0.75 0.75 0.81 0.86 0.68 0.65 0.62 0.53 0.39 0.49 0.46 0.51 0.65 0.59 0.57 0.62 0.47 0.36 0.30 0.28 0.30 0.21 0.17 0.17 0.22
0.00 0.00 0.00 0.00 0.00 0.01 0.02 0.02 0.04 0.09 0.28 0.35 0.50 0.74 0.99 1.03 1.21 1.17 1.21 1.31 1.25 1.31 1.08 0.84 0.77 0.76 0.83 0.97 0.89 0.88 0.83 0.77 0.68 0.71 0.57 0.67 0.80 0.87 0.88 0.99 0.86 0.78 0.71 0.66 0.57 0.50 0.36 0.33 0.33
0.00 0.00 0.00 0.00 0.00 0.01 0.02 0.04 0.06 0.07 0.11 0.33 0.50 0.60 0.90 0.92 1.00 1.12 1.30 1.64 1.69 1.60 1.41 1.16 0.93 0.92 0.98 1.12 1.16 1.13 1.10 1.04 1.08 1.12 0.92 0.91 0.87 0.96 1.17 1.20 1.33 1.13 1.13 1.06 0.94 0.76 0.68 0.58 0.50
0.00 0.00 0.00 0.00 0.00 0.01 0.04 0.04 0.07 0.05 0.07 0.16 0.27 0.38 0.66 0.77 0.96 1.21 1.37 1.68 1.98 1.92 1.64 1.45 1.30 1.14 1.07 1.07 1.16 1.18 1.14 1.22 1.29 1.42 1.32 1.24 1.18 1.31 1.62 1.63 1.59 1.43 1.47 1.55 1.55 1.37 1.15 0.95 0.89
0.00 0.00 0.00 0.00 0.00 0.01 0.03 0.04 0.04 0.05 0.07 0.12 0.17 0.30 0.47 0.76 0.88 1.26 1.55 1.71 1.92 1.77 1.80 1.75 1.65 1.48 1.25 1.14 1.25 1.36 1.29 1.30 1.37 1.58 1.65 1.59 1.54 1.73 1.76 2.00 1.96 1.82 1.77 1.70 1.63 1.78 1.75 1.45 1.24
0.00 0.00 0.01 0.01 0.00 0.00 0.01 0.04 0.06 0.08 0.08 0.11 0.17 0.29 0.43 0.65 0.80 1.00 1.29 1.52 1.92 1.89 1.76 1.77 1.61 1.44 1.50 1.45 1.56 1.62 1.73 1.83 1.79 1.84 2.09 2.15 2.10 2.11 2.07 2.09 2.12 2.04 2.00 2.16 2.20 2.12 2.10 2.01 1.77
0.00 0.00 0.01 0.01 0.00 0.01 0.01 0.06 0.14 0.07 0.06 0.10 0.15 0.29 0.51 0.54 0.64 0.72 0.97 1.21 1.52 1.56 1.62 1.68 1.70 1.58 1.53 1.72 1.99 2.09 2.27 2.55 2.69 2.64 2.80 2.77 2.62 2.58 2.60 2.61 2.68 2.55 2.56 2.52 2.40 2.53 2.45 2.35 2.12
0.00 0.01 0.01 0.01 0.01 0.01 0.01 0.05 0.13 0.13 0.13 0.15 0.18 0.26 0.48 0.52 0.71 0.86 0.93 1.03 1.31 1.40 1.51 1.63 1.83 1.92 1.83 1.88 2.11 2.45 2.64 2.84 3.23 3.30 3.28 3.28 3.32 3.27 3.27 3.19 3.20 3.10 2.98 2.84 2.78 2.70 2.48 2.35 2.10
0.00 0.00 0.01 0.01 0.01 0.00 0.02 0.06 0.11 0.14 0.16 0.23 0.26 0.30 0.38 0.56 0.87 1.06 1.14 1.24 1.43 1.62 1.87 1.84 1.90 2.07 2.25 2.52 2.53 2.71 3.07 3.46 3.69 3.87 3.97 3.93 3.82 3.76 3.58 3.46 3.48 3.31 3.13 2.94 2.81 2.68 2.56 2.27 2.03
0.00 0.00 0.01 0.02 0.01 0.01 0.04 0.12 0.17 0.18 0.19 0.25 0.34 0.36 0.37 0.48 0.75 1.10 1.19 1.40 1.60 1.76 1.97 2.09 2.15 2.47 2.93 3.33 3.77 4.18 4.47 4.48 4.62 4.66 4.64 4.49 4.34 4.16 3.92 3.87 3.73 3.47 3.28 3.03 2.79 2.61 2.55 2.32 2.14
0.00 0.00 0.01 0.02 0.03 0.05 0.08 0.23 0.30 0.29 0.31 0.36 0.39 0.40 0.44 0.58 0.79 0.98 1.15 1.41 1.62 1.78 1.99 2.14 2.42 3.06 3.85 4.23 4.56 5.11 5.44 5.26 5.05 4.82 4.74 4.65 4.63 4.58 4.33 4.17 3.90 3.62 3.31 3.03 2.76 2.55 2.45 2.36 2.22
0.00 0.01 0.01 0.03 0.04 0.08 0.11 0.29 0.46 0.48 0.50 0.44 0.47 0.52 0.59 0.70 0.85 1.01 1.18 1.40 1.71 2.00 2.07 2.25 2.75 3.50 4.17 4.64 5.19 5.72 5.95 5.97 5.82 5.33 4.89 4.46 4.11 3.92 3.78 3.66 3.48 3.24 2.93 2.71 2.49 2.29 2.19 2.24 2.12
0.01 0.00 0.01 0.03 0.05 0.08 0.10 0.26 0.58 0.70 0.74 0.70 0.70 0.68 0.66 0.70 0.86 0.98 1.10 1.29 1.49 1.77 2.14 2.40 2.94 3.62 4.30 4.98 5.63 6.02 6.23 6.22 5.81 5.01 4.27 3.82 3.51 3.23 3.01 2.88 2.76 2.60 2.43 2.26 2.14 2.06 1.94 1.88 1.78
0.01 0.01 0.01 0.03 0.05 0.10 0.10 0.23 0.65 0.97 1.08 1.07 0.97 0.91 0.79 0.68 0.72 0.83 0.99 1.07 1.35 1.63 1.94 2.36 2.67 3.30 3.97 4.55 5.04 5.21 5.37 5.33 4.92 4.44 3.92 3.52 3.07 2.57 2.21 2.02 1.92 1.82 1.73 1.70 1.68 1.66 1.62 1.56 1.52
0.01 0.02 0.08 0.14 0.18 0.18 0.13 0.26 0.70 1.05 1.07 1.01 0.99 0.98 0.88 0.70 0.70 0.88 1.09 1.02 1.24 1.55 1.88 2.27 2.67 3.06 3.55 4.05 4.50 4.74 4.87 4.69 4.24 3.82 3.41 2.95 2.50 2.08 1.73 1.53 1.44 1.41 1.36 1.29 1.30 1.31 1.28 1.27 1.28
0.01 0.03 0.14 0.25 0.29 0.31 0.31 0.52 0.89 0.99 0.93 0.87 0.84 0.80 0.78 0.76 0.74 0.82 0.97 1.02 1.24 1.45 1.74 2.09 2.41 2.73 2.92 3.10 3.42 3.64 3.79 3.65 3.33 2.88 2.43 2.15 1.90 1.64 1.42 1.27 1.19 1.06 0.94 0.91 0.95 0.99 1.01 1.01 1.09
0.02 0.04 0.10 0.12 0.15 0.32 0.59 0.83 1.13 1.09 0.92 0.88 0.82 0.76 0.77 0.77 0.74 0.78 0.90 0.99 1.19 1.47 1.72 1.97 2.10 2.26 2.41 2.51 2.56 2.61 2.72 2.62 2.39 2.12 1.85 1.59 1.35 1.16 1.02 0.90 0.82 0.77 0.71 0.69 0.72 0.76 0.79 0.83 0.90
0.03 0.04 0.06 0.10 0.24 0.42 0.67 1.06 1.34 1.47 1.33 1.12 0.90 0.83 0.77 0.80 0.78 0.78 0.84 0.89 0.97 1.10 1.35 1.57 1.68 1.75 1.80 1.85 1.89 1.91 1.92 1.84 1.75 1.59 1.40 1.18 1.03 0.88 0.75 0.64 0.57 0.56 0.58 0.59 0.56 0.58 0.60 0.63 0.69
0.04 0.05 0.07 0.11 0.15 0.34 0.69 1.27 1.49 1.73 1.76 1.45 1.10 0.97 0.93 0.93 0.86 0.81 0.80 0.76 0.79 0.84 0.98 1.17 1.30 1.33 1.39 1.46 1.43 1.38 1.44 1.39 1.31 1.26 1.17 1.03 0.92 0.81 0.71 0.63 0.59 0.57 0.53 0.50 0.51 0.50 0.52 0.57 0.59
0.05 0.08 0.12 0.20 0.21 0.24 0.59 1.43 1.82 1.93 1.81 1.48 1.25 1.12 1.07 0.98 0.85 0.76 0.70 0.62 0.64 0.69 0.73 0.82 0.92 0.92 0.97 1.01 1.02 1.07 1.11 1.13 1.08 0.99 0.89 0.75 0.66 0.62 0.58 0.52 0.52 0.53 0.50 0.48 0.47 0.44 0.43 0.42 0.42

GEFSSGP_prec_meanprecacc_138.txt.gz
Total_Precipitation_Accumulation
0.00 0.00 0.00 0.00 0.00 0.00 0.00 0.01 0.03 0.06 0.12 0.11 0.14 0.18 0.26 0.35 0.44 0.88 0.53 0.23 0.12 0.05 0.02 0.02 0.04 0.04 0.06 0.07 0.08 0.09 0.08 0.08 0.08 0.09 0.09 0.10 0.09 0.09 0.09 0.09 0.12 0.18 0.22 0.20 0.18 0.18 0.19 0.17 0.11
0.00 0.00 0.00 0.00 0.00 0.00 0.02 0.02 0.04 0.08 0.13 0.15 0.16 0.19 0.22 0.25 0.18 0.14 0.14 0.13 0.12 0.05 0.02 0.02 0.03 0.04 0.05 0.05 0.08 0.10 0.10 0.08 0.08 0.09 0.09 0.09 0.09 0.09 0.09 0.10 0.13 0.20 0.25 0.24 0.22 0.20 0.19 0.16 0.11
0.00 0.00 0.00 0.00 0.00 0.00 0.05 0.05 0.06 0.09 0.12 0.14 0.23 0.30 0.31 0.34 0.29 0.17 0.14 0.13 0.13 0.06 0.03 0.02 0.03 0.04 0.05 0.05 0.06 0.10 0.11 0.09 0.09 0.09 0.09 0.09 0.09 0.09 0.11 0.12 0.13 0.16 0.20 0.19 0.15 0.13 0.13 0.14 0.10
0.00 0.00 0.00 0.00 0.00 0.00 0.03 0.06 0.08 0.09 0.12 0.18 0.24 0.37 0.35 0.37 0.32 0.23 0.18 0.17 0.14 0.08 0.04 0.03 0.04 0.05 0.07 0.08 0.08 0.10 0.10 0.10 0.11 0.11 0.13 0.13 0.13 0.12 0.14 0.17 0.18 0.17 0.18 0.16 0.14 0.12 0.12 0.13 0.09
0.00 0.00 0.00 0.00 0.00 0.01 0.03 0.06 0.10 0.09 0.15 0.24 0.30 0.46 0.57 0.56 0.55 0.46 0.27 0.24 0.24 0.15 0.07 0.04 0.05 0.07 0.10 0.12 0.14 0.16 0.16 0.15 0.16 0.18 0.19 0.18 0.16 0.17 0.18 0.19 0.20 0.19 0.19 0.17 0.15 0.16 0.15 0.12 0.10
0.00 0.00 0.00 0.00 0.01 0.02 0.03 0.08 0.11 0.14 0.17 0.19 0.32 0.59 0.93 0.87 0.66 0.67 0.55 0.37 0.32 0.20 0.11 0.08 0.07 0.09 0.15 0.19 0.21 0.23 0.20 0.18 0.19 0.21 0.23 0.20 0.17 0.16 0.16 0.17 0.18 0.19 0.22 0.21 0.15 0.11 0.08 0.07 0.09
0.00 0.00 0.00 0.00 0.01 0.03 0.03 0.06 0.11 0.14 0.14 0.25 0.49 0.77 1.05 1.02 0.79 0.78 0.77 0.57 0.49 0.33 0.17 0.13 0.10 0.10 0.18 0.26 0.24 0.23 0.21 0.21 0.23 0.27 0.29 0.24 0.19 0.16 0.15 0.17 0.18 0.18 0.18 0.15 0.09 0.06 0.04 0.04 0.05
0.00 0.00 0.00 0.00 0.01 0.03 0.05 0.06 0.09 0.13 0.20 0.39 0.64 0.76 1.00 1.11 0.95 0.77 0.72 0.60 0.53 0.48 0.30 0.23 0.22 0.20 0.21 0.23 0.25 0.26 0.25 0.26 0.27 0.27 0.25 0.21 0.16 0.15 0.15 0.15 0.15 0.15 0.15 0.15 0.11 0.07 0.05 0.05 0.05
0.00 0.00 0.00 0.01 0.02 0.03 0.05 0.07 0.08 0.11 0.18 0.36 0.45 0.58 0.86 0.96 0.88 0.83 0.80 0.66 0.58 0.51 0.45 0.40 0.35 0.32 0.30 0.26 0.23 0.26 0.24 0.25 0.23 0.20 0.18 0.17 0.19 0.25 0.24 0.19 0.18 0.19 0.19 0.16 0.12 0.10 0.08 0.06 0.06
0.00 0.00 0.00 0.01 0.02 0.03 0.05 0.07 0.08 0.11 0.15 0.28 0.43 0.51 0.64 0.83 0.92 0.96 0.96 0.84 0.76 0.72 0.66 0.62 0.62 0.57 0.51 0.46 0.44 0.41 0.35 0.31 0.25 0.28 0.24 0.25 0.48 0.57 0.49 0.48 0.36 0.30 0.25 0.18 0.16 0.14 0.11 0.10 0.11
0.00 0.00 0.01 0.01 0.01 0.03 0.05 0.08 0.08 0.12 0.23 0.29 0.51 0.82 0.79 0.84 1.00 1.18 1.17 1.14 1.17 1.08 0.79 0.71 0.82 0.83 0.90 0.96 0.76 0.72 0.72 0.61 0.47 0.60 0.58 0.59 0.74 0.69 0.69 0.73 0.58 0.45 0.37 0.33 0.34 0.23 0.19 0.19 0.25
0.00 0.00 0.01 0.01 0.01 0.02 0.04 0.08 0.11 0.14 0.32 0.40 0.58 0.88 1.18 1.14 1.27 1.24 1.28 1.38 1.35 1.37 1.13 0.89 0.84 0.84 0.97 1.10 1.03 0.99 0.96 0.89 0.80 0.85 0.73 0.80 0.91 1.00 1.08 1.21 1.04 0.92 0.81 0.75 0.63 0.54 0.40 0.38 0.39
0.00 0.00 0.01 0.01 0.01 0.01 0.04 0.07 0.12 0.14 0.16 0.36 0.55 0.70 1.07 1.04 1.08 1.21 1.41 1.76 1.82 1.68 1.48 1.24 1.03 0.99 1.09 1.22 1.25 1.21 1.18 1.13 1.17 1.24 1.07 1.07 1.02 1.11 1.38 1.43 1.56 1.32 1.27 1.16 1.01 0.84 0.76 0.66 0.59
0.00 0.00 0.00 0.01 0.01 0.02 0.06 0.08 0.10 0.10 0.10 0.18 0.31 0.44 0.72 0.86 1.10 1.41 1.64 1.93 2.28 2.12 1.75 1.52 1.36 1.20 1.12 1.14 1.22 1.23 1.21 1.32 1.41 1.54 1.45 1.41 1.40 1.51 1.84 1.92 1.84 1.64 1.65 1.72 1.69 1.48 1.24 1.04 0.97
0.00 0.00 0.00 0.00 0.01 0.01 0.04 0.06 0.07 0.10 0.12 0.15 0.23 0.36 0.55 0.89 1.09 1.56 1.93 2.11 2.42 2.16 2.05 1.87 1.72 1.57 1.32 1.19 1.29 1.39 1.33 1.37 1.45 1.67 1.78 1.75 1.75 1.97 2.03 2.28 2.24 2.04 1.96 1.90 1.83 1.92 1.88 1.56 1.33
0.00 0.00 0.01 0.01 0.01 0.01 0.02 0.07 0.10 0.11 0.12 0.16 0.24 0.39 0.54 0.80 1.02 1.20 1.54 1.84 2.31 2.32 2.03 1.93 1.70 1.51 1.57 1.50 1.60 1.65 1.76 1.88 1.85 1.91 2.20 2.30 2.28 2.32 2.34 2.35 2.34 2.25 2.20 2.35 2.40 2.29 2.24 2.14 1.89
0.00 0.00 0.01 0.01 0.01 0.02 0.02 0.09 0.16 0.10 0.09 0.14 0.22 0.43 0.72 0.77 0.86 0.94 1.20 1.44 1.76 1.79 1.79 1.83 1.78 1.62 1.57 1.74 2.00 2.12 2.32 2.60 2.76 2.75 2.95 2.91 2.75 2.72 2.80 2.83 2.84 2.69 2.71 2.64 2.52 2.66 2.56 2.47 2.24
0.00 0.02 0.01 0.02 0.02 0.02 0.03 0.06 0.15 0.16 0.17 0.23 0.28 0.38 0.64 0.73 0.94 1.14 1.18 1.22 1.48 1.53 1.60 1.72 1.90 1.96 1.86 1.90 2.12 2.47 2.69 2.91 3.30 3.39 3.43 3.46 3.50 3.47 3.47 3.40 3.37 3.22 3.09 2.95 2.88 2.81 2.58 2.43 2.19
0.00 0.01 0.02 0.02 0.02 0.02 0.05 0.10 0.15 0.18 0.21 0.31 0.38 0.44 0.55 0.70 1.03 1.33 1.38 1.40 1.60 1.78 1.96 1.88 1.95 2.14 2.29 2.53 2.55 2.74 3.10 3.50 3.73 3.93 4.05 4.04 3.97 3.95 3.76 3.62 3.64 3.45 3.26 3.06 2.91 2.78 2.67 2.37 2.13
0.00 0.00 0.01 0.03 0.03 0.03 0.07 0.17 0.22 0.25 0.26 0.32 0.44 0.49 0.50 0.60 0.86 1.28 1.39 1.53 1.71 1.85 2.03 2.12 2.18 2.51 2.98 3.37 3.80 4.21 4.50 4.50 4.65 4.70 4.68 4.55 4.41 4.29 4.09 4.02 3.87 3.61 3.41 3.17 2.91 2.73 2.67 2.45 2.25
0.00 0.00 0.01 0.02 0.06 0.08 0.12 0.27 0.34 0.37 0.41 0.44 0.49 0.54 0.57 0.69 0.87 1.05 1.24 1.49 1.69 1.85 2.04 2.18 2.46 3.10 3.89 4.28 4.60 5.15 5.47 5.29 5.08 4.86 4.78 4.69 4.67 4.66 4.47 4.33 4.04 3.76 3.46 3.18 2.91 2.70 2.58 2.48 2.34
0.00 0.01 0.01 0.03 0.05 0.11 0.13 0.33 0.52 0.56 0.63 0.57 0.65 0.74 0.82 0.86 0.94 1.08 1.25 1.49 1.77 2.05 2.14 2.31 2.80 3.54 4.20 4.68 5.24 5.77 5.99 6.01 5.85 5.37 4.93 4.49 4.15 3.97 3.88 3.81 3.63 3.38 3.07 2.86 2.63 2.43 2.31 2.38 2.27
0.01 0.01 0.01 0.03 0.05 0.09 0.11 0.28 0.63 0.81 0.87 0.85 0.89 0.87 0.87 0.87 0.96 1.08 1.19 1.36 1.54 1.82 2.19 2.44 2.97 3.65 4.34 5.03 5.70 6.08 6.29 6.26 5.84 5.06 4.33 3.88 3.57 3.30 3.09 2.97 2.85 2.70 2.54 2.38 2.27 2.18 2.05 1.99 1.90
0.01 0.01 0.01 0.03 0.05 0.10 0.11 0.24 0.69 1.03 1.19 1.20 1.10 1.04 0.97 0.86 0.85 0.93 1.08 1.14 1.40 1.67 1.97 2.39 2.71 3.34 4.03 4.62 5.13 5.28 5.42 5.36 4.94 4.48 3.99 3.60 3.16 2.67 2.32 2.13 2.01 1.91 1.83 1.82 1.81 1.79 1.73 1.66 1.61
0.01 0.02 0.08 0.15 0.19 0.19 0.15 0.31 0.76 1.10 1.11 1.06 1.08 1.14 1.07 0.89 0.87 1.03 1.21 1.10 1.29 1.57 1.90 2.28 2.69 3.09 3.61 4.11 4.55 4.78 4.91 4.72 4.26 3.84 3.45 3.01 2.54 2.14 1.81 1.61 1.51 1.46 1.42 1.36 1.38 1.39 1.35 1.34 1.34
0.01 0.03 0.15 0.26 0.30 0.32 0.32 0.57 0.98 1.05 0.98 0.92 0.91 0.94 1.00 0.94 0.88 0.92 1.06 1.08 1.27 1.47 1.75 2.10 2.43 2.75 2.95 3.15 3.46 3.68 3.82 3.67 3.35 2.90 2.46 2.18 1.93 1.68 1.45 1.30 1.21 1.08 0.96 0.93 0.98 1.03 1.04 1.04 1.11
0.03 0.05 0.11 0.13 0.17 0.34 0.63 0.89 1.23 1.20 1.08 0.99 0.89 0.87 0.90 0.86 0.81 0.83 0.93 1.03 1.23 1.49 1.73 1.98 2.12 2.27 2.44 2.55 2.60 2.64 2.74 2.64 2.41 2.14 1.86 1.60 1.36 1.17 1.03 0.91 0.83 0.79 0.71 0.70 0.73 0.77 0.81 0.84 0.91
0.04 0.05 0.08 0.12 0.28 0.46 0.73 1.15 1.46 1.59 1.47 1.31 1.05 0.93 0.85 0.88 0.88 0.86 0.89 0.94 1.01 1.12 1.37 1.58 1.69 1.76 1.80 1.86 1.90 1.92 1.94 1.86 1.77 1.60 1.41 1.19 1.03 0.89 0.76 0.65 0.57 0.57 0.59 0.60 0.57 0.58 0.61 0.64 0.70
0.06 0.07 0.09 0.13 0.20 0.41 0.77 1.34 1.60 1.85 1.89 1.70 1.35 1.15 1.08 1.06 0.99 0.91 0.87 0.82 0.83 0.86 1.01 1.18 1.31 1.33 1.40 1.47 1.45 1.40 1.45 1.41 1.33 1.27 1.18 1.03 0.92 0.81 0.71 0.63 0.60 0.57 0.53 0.51 0.52 0.51 0.53 0.58 0.61
0.07 0.10 0.13 0.22 0.25 0.28 0.65 1.50 1.90 2.03 1.96 1.68 1.47 1.30 1.24 1.14 0.98 0.86 0.77 0.68 0.68 0.73 0.76 0.84 0.92 0.93 0.98 1.02 1.03 1.08 1.12 1.14 1.08 0.99 0.89 0.75 0.67 0.62 0.58 0.52 0.53 0.53 0.50 0.48 0.47 0.45 0.44 0.43 0.44

GEFSSGP_prec_meanprecacc_144.txt.gz
Total_Precipitation_Accumulation
0.00 0.00 0.00 0.00 0.00 0.00 0.00 0.02 0.04 0.09 0.15 0.15 0.18 0.21 0.27 0.36 0.44 0.89 0.55 0.24 0.13 0.05 0.03 0.03 0.04 0.04 0.06 0.07 0.08 0.09 0.08 0.08 0.08 0.09 0.09 0.10 0.10 0.09 0.09 0.10 0.13 0.19 0.22 0.21 0.19 0.19 0.20 0.17 0.12
0.00 0.00 0.00 0.00 0.00 0.00 0.02 0.03 0.06 0.11 0.14 0.17 0.17 0.20 0.23 0.26 0.19 0.15 0.16 0.14 0.13 0.06 0.03 0.03 0.04 0.04 0.05 0.05 0.08 0.10 0.10 0.08 0.08 0.09 0.09 0.09 0.09 0.09 0.09 0.10 0.14 0.20 0.25 0.25 0.23 0.21 0.19 0.16 0.11
0.00 0.00 0.00 0.00 0.00 0.01 0.05 0.07 0.09 0.12 0.14 0.15 0.23 0.30 0.31 0.35 0.30 0.18 0.16 0.15 0.15 0.08 0.04 0.03 0.04 0.04 0.05 0.06 0.07 0.10 0.11 0.09 0.09 0.09 0.09 0.09 0.09 0.09 0.11 0.12 0.13 0.16 0.21 0.20 0.16 0.14 0.14 0.14 0.11
0.00 0.00 0.00 0.00 0.00 0.01 0.03 0.09 0.13 0.12 0.15 0.19 0.25 0.38 0.36 0.38 0.33 0.25 0.20 0.20 0.16 0.10 0.05 0.04 0.05 0.06 0.07 0.08 0.09 0.10 0.10 0.10 0.11 0.12 0.13 0.13 0.13 0.12 0.15 0.18 0.18 0.18 0.19 0.17 0.14 0.13 0.12 0.13 0.10
0.00 0.00 0.00 0.00 0.00 0.01 0.03 0.08 0.15 0.14 0.17 0.26 0.33 0.48 0.58 0.58 0.57 0.48 0.28 0.26 0.27 0.18 0.09 0.05 0.06 0.08 0.11 0.13 0.15 0.16 0.16 0.16 0.17 0.18 0.19 0.18 0.17 0.18 0.18 0.20 0.21 0.20 0.20 0.18 0.16 0.17 0.15 0.13 0.11
0.00 0.00 0.00 0.00 0.01 0.02 0.04 0.10 0.15 0.18 0.20 0.21 0.34 0.61 0.95 0.88 0.69 0.70 0.57 0.39 0.35 0.23 0.13 0.10 0.08 0.10 0.16 0.19 0.22 0.24 0.21 0.19 0.19 0.22 0.23 0.20 0.17 0.17 0.17 0.17 0.18 0.20 0.22 0.21 0.16 0.11 0.08 0.07 0.09
0.00 0.00 0.00 0.00 0.02 0.03 0.05 0.08 0.14 0.16 0.16 0.26 0.50 0.78 1.07 1.04 0.81 0.80 0.79 0.59 0.52 0.36 0.20 0.15 0.12 0.11 0.18 0.26 0.25 0.23 0.22 0.21 0.23 0.27 0.29 0.25 0.20 0.16 0.15 0.18 0.19 0.19 0.19 0.16 0.09 0.06 0.05 0.05 0.06
0.00 0.00 0.00 0.00 0.01 0.04 0.07 0.08 0.11 0.15 0.22 0.40 0.64 0.77 1.02 1.12 0.98 0.79 0.74 0.63 0.55 0.50 0.32 0.24 0.23 0.21 0.21 0.24 0.26 0.26 0.25 0.26 0.27 0.28 0.26 0.22 0.16 0.15 0.16 0.15 0.16 0.16 0.17 0.17 0.12 0.08 0.07 0.06 0.06
0.00 0.00 0.00 0.01 0.02 0.04 0.06 0.08 0.09 0.12 0.20 0.37 0.46 0.58 0.87 0.98 0.91 0.87 0.83 0.70 0.61 0.53 0.46 0.42 0.37 0.34 0.30 0.27 0.24 0.27 0.24 0.25 0.23 0.20 0.19 0.18 0.20 0.26 0.25 0.21 0.19 0.21 0.22 0.20 0.15 0.12 0.11 0.09 0.08
0.00 0.00 0.00 0.01 0.02 0.03 0.06 0.08 0.09 0.12 0.16 0.28 0.44 0.52 0.66 0.86 0.96 1.00 1.01 0.89 0.80 0.74 0.69 0.65 0.64 0.59 0.52 0.46 0.45 0.41 0.35 0.32 0.26 0.29 0.25 0.26 0.49 0.59 0.51 0.50 0.39 0.34 0.29 0.22 0.20 0.18 0.15 0.13 0.13
0.00 0.00 0.01 0.01 0.02 0.03 0.06 0.08 0.08 0.12 0.23 0.30 0.52 0.83 0.82 0.87 1.05 1.23 1.23 1.20 1.22 1.14 0.86 0.76 0.85 0.85 0.91 0.96 0.77 0.73 0.73 0.62 0.49 0.62 0.59 0.60 0.76 0.70 0.70 0.75 0.61 0.49 0.40 0.36 0.38 0.27 0.22 0.21 0.26
0.00 0.01 0.02 0.01 0.01 0.02 0.04 0.08 0.12 0.14 0.32 0.41 0.60 0.89 1.19 1.17 1.31 1.30 1.36 1.46 1.43 1.47 1.22 0.97 0.89 0.89 1.01 1.13 1.05 1.01 0.98 0.91 0.81 0.86 0.73 0.81 0.92 1.01 1.09 1.23 1.07 0.95 0.84 0.79 0.67 0.57 0.43 0.40 0.42
0.00 0.00 0.01 0.02 0.02 0.01 0.04 0.08 0.13 0.15 0.17 0.37 0.57 0.72 1.10 1.09 1.14 1.28 1.51 1.89 1.97 1.79 1.56 1.29 1.08 1.05 1.15 1.26 1.29 1.23 1.20 1.14 1.18 1.26 1.08 1.09 1.04 1.14 1.42 1.47 1.60 1.36 1.31 1.21 1.06 0.88 0.80 0.69 0.62
0.00 0.00 0.00 0.01 0.01 0.03 0.07 0.09 0.11 0.10 0.11 0.19 0.33 0.47 0.76 0.91 1.17 1.51 1.77 2.10 2.47 2.28 1.89 1.61 1.43 1.27 1.18 1.19 1.27 1.28 1.25 1.35 1.43 1.56 1.48 1.44 1.44 1.57 1.93 1.99 1.90 1.69 1.71 1.78 1.75 1.55 1.31 1.09 1.02
0.00 0.00 0.00 0.01 0.01 0.02 0.04 0.07 0.08 0.11 0.13 0.18 0.26 0.40 0.59 0.93 1.16 1.65 2.07 2.28 2.58 2.33 2.22 2.00 1.80 1.64 1.38 1.24 1.34 1.45 1.37 1.41 1.47 1.69 1.81 1.78 1.79 2.02 2.11 2.35 2.30 2.11 2.03 1.97 1.91 2.02 1.96 1.63 1.38
0.00 0.00 0.01 0.01 0.01 0.02 0.02 0.08 0.11 0.12 0.13 0.18 0.26 0.42 0.57 0.84 1.10 1.33 1.68 2.00 2.45 2.47 2.18 2.13 1.85 1.61 1.65 1.56 1.67 1.75 1.87 1.95 1.89 1.94 2.23 2.32 2.31 2.35 2.38 2.41 2.41 2.32 2.28 2.44 2.50 2.40 2.33 2.21 1.94
0.01 0.00 0.01 0.01 0.02 0.03 0.03 0.09 0.17 0.11 0.11 0.17 0.25 0.46 0.76 0.81 0.95 1.08 1.35 1.58 1.91 1.94 1.94 1.98 1.90 1.72 1.65 1.83 2.10 2.24 2.43 2.66 2.80 2.78 2.97 2.94 2.78 2.75 2.83 2.89 2.93 2.78 2.79 2.75 2.63 2.76 2.65 2.55 2.32
0.00 0.02 0.02 0.02 0.02 0.03 0.03 0.06 0.16 0.18 0.20 0.26 0.31 0.41 0.68 0.77 1.02 1.24 1.32 1.36 1.65 1.71 1.77 1.90 2.05 2.10 1.96 1.97 2.21 2.57 2.76 2.96 3.33 3.41 3.45 3.49 3.54 3.51 3.52 3.48 3.47 3.33 3.20 3.06 2.97 2.91 2.68 2.53 2.30
0.00 0.01 0.02 0.02 0.02 0.02 0.05 0.10 0.17 0.21 0.25 0.35 0.42 0.49 0.59 0.74 1.10 1.43 1.50 1.54 1.73 1.92 2.10 2.00 2.04 2.24 2.39 2.63 2.66 2.82 3.15 3.54 3.76 3.95 4.07 4.07 4.00 3.99 3.82 3.70 3.74 3.56 3.38 3.19 3.03 2.91 2.79 2.49 2.24
0.00 0.00 0.01 0.03 0.04 0.04 0.08 0.18 0.24 0.28 0.29 0.36 0.49 0.55 0.56 0.67 0.94 1.36 1.47 1.62 1.81 1.96 2.12 2.20 2.27 2.60 3.08 3.48 3.89 4.26 4.54 4.54 4.69 4.73 4.71 4.57 4.44 4.32 4.12 4.06 3.95 3.71 3.53 3.29 3.04 2.88 2.81 2.56 2.36
0.00 0.00 0.01 0.03 0.06 0.09 0.13 0.28 0.36 0.39 0.45 0.49 0.55 0.61 0.67 0.79 0.96 1.14 1.34 1.58 1.80 1.97 2.17 2.28 2.55 3.18 3.97 4.35 4.67 5.21 5.51 5.32 5.11 4.89 4.81 4.71 4.69 4.69 4.50 4.37 4.09 3.84 3.55 3.27 3.00 2.79 2.69 2.59 2.45
0.00 0.01 0.01 0.03 0.05 0.11 0.14 0.34 0.54 0.59 0.66 0.61 0.69 0.82 0.93 0.96 1.03 1.18 1.37 1.61 1.91 2.20 2.28 2.42 2.89 3.61 4.27 4.73 5.29 5.81 6.03 6.04 5.88 5.40 4.96 4.52 4.18 3.99 3.91 3.84 3.67 3.44 3.16 2.96 2.72 2.51 2.40 2.47 2.35
0.01 0.01 0.01 0.04 0.05 0.09 0.12 0.28 0.64 0.83 0.89 0.86 0.93 0.93 0.96 0.96 1.06 1.20 1.33 1.51 1.70 1.98 2.35 2.59 3.08 3.74 4.40 5.09 5.76 6.13 6.32 6.29 5.87 5.09 4.35 3.90 3.59 3.32 3.11 3.00 2.89 2.75 2.61 2.46 2.38 2.31 2.17 2.11 2.00
0.01 0.01 0.02 0.04 0.06 0.11 0.11 0.25 0.69 1.04 1.21 1.22 1.14 1.09 1.03 0.96 0.98 1.07 1.23 1.31 1.59 1.85 2.12 2.51 2.80 3.42 4.11 4.69 5.18 5.32 5.46 5.39 4.96 4.50 4.01 3.62 3.17 2.68 2.34 2.16 2.05 1.96 1.89 1.89 1.91 1.91 1.85 1.78 1.73
0.01 0.02 0.08 0.16 0.19 0.19 0.15 0.31 0.76 1.10 1.12 1.08 1.11 1.18 1.13 0.98 0.99 1.15 1.36 1.28 1.50 1.74 2.02 2.38 2.77 3.16 3.66 4.16 4.58 4.82 4.93 4.75 4.29 3.87 3.48 3.03 2.56 2.15 1.82 1.64 1.57 1.52 1.50 1.45 1.47 1.49 1.46 1.44 1.45
0.01 0.03 0.15 0.26 0.30 0.32 0.32 0.57 0.98 1.05 0.99 0.94 0.93 0.98 1.07 1.04 0.99 1.04 1.18 1.21 1.41 1.60 1.85 2.18 2.49 2.78 2.98 3.17 3.49 3.72 3.87 3.73 3.40 2.95 2.49 2.21 1.94 1.68 1.46 1.31 1.23 1.12 1.02 1.01 1.06 1.10 1.10 1.10 1.17
0.03 0.05 0.11 0.13 0.17 0.34 0.64 0.90 1.24 1.21 1.08 1.00 0.91 0.89 0.94 0.91 0.88 0.93 1.04 1.15 1.33 1.58 1.81 2.05 2.17 2.31 2.46 2.57 2.62 2.67 2.78 2.68 2.45 2.18 1.90 1.63 1.38 1.18 1.04 0.92 0.83 0.80 0.74 0.74 0.78 0.82 0.83 0.87 0.93
0.04 0.06 0.08 0.12 0.28 0.47 0.73 1.15 1.46 1.59 1.48 1.32 1.05 0.95 0.88 0.93 0.94 0.94 0.99 1.06 1.12 1.21 1.46 1.66 1.74 1.80 1.85 1.88 1.92 1.94 1.95 1.88 1.79 1.63 1.43 1.21 1.05 0.89 0.77 0.65 0.57 0.58 0.60 0.62 0.59 0.61 0.63 0.65 0.71
0.06 0.07 0.09 0.14 0.21 0.42 0.78 1.35 1.60 1.86 1.91 1.71 1.36 1.18 1.12 1.12 1.06 1.00 1.00 0.96 0.97 0.98 1.11 1.29 1.42 1.42 1.46 1.51 1.47 1.41 1.46 1.42 1.34 1.28 1.19 1.05 0.94 0.82 0.71 0.64 0.60 0.57 0.54 0.52 0.54 0.53 0.55 0.59 0.62
0.08 0.11 0.15 0.23 0.26 0.29 0.66 1.50 1.90 2.03 1.97 1.69 1.49 1.33 1.27 1.19 1.06 0.96 0.90 0.81 0.80 0.84 0.87 0.94 1.03 1.04 1.05 1.06 1.06 1.11 1.14 1.15 1.10 1.00 0.90 0.76 0.68 0.63 0.58 0.53 0.53 0.53 0.50 0.49 0.49 0.47 0.45 0.44 0.44

GEFSSGP_prec_meanprecacc_150.txt.gz
Total_Precipitation_Accumulation
0.00 0.00 0.00 0.00 0.00 0.00 0.01 0.02 0.04 0.11 0.16 0.15 0.19 0.21 0.27 0.36 0.45 0.90 0.55 0.25 0.14 0.07 0.04 0.04 0.05 0.05 0.06 0.07 0.09 0.09 0.08 0.08 0.08 0.09 0.10 0.10 0.10 0.09 0.09 0.10 0.13 0.19 0.22 0.21 0.19 0.19 0.20 0.18 0.12
0.00 0.00 0.00 0.00 0.00 0.00 0.02 0.03 0.07 0.13 0.15 0.17 0.18 0.20 0.23 0.26 0.19 0.15 0.17 0.16 0.15 0.07 0.04 0.03 0.05 0.05 0.05 0.06 0.08 0.10 0.10 0.08 0.08 0.09 0.09 0.09 0.09 0.09 0.09 0.10 0.14 0.20 0.25 0.25 0.23 0.21 0.20 0.17 0.12
0.00 0.00 0.00 0.00 0.00 0.01 0.06 0.08 0.09 0.13 0.14 0.15 0.23 0.30 0.31 0.35 0.31 0.19 0.16 0.16 0.16 0.09 0.05 0.04 0.05 0.05 0.06 0.06 0.07 0.10 0.11 0.09 0.09 0.09 0.09 0.09 0.10 0.10 0.11 0.13 0.14 0.17 0.22 0.21 0.16 0.14 0.14 0.14 0.11
0.00 0.00 0.00 0.00 0.00 0.01 0.03 0.09 0.14 0.13 0.16 0.19 0.25 0.38 0.37 0.38 0.33 0.25 0.20 0.21 0.18 0.12 0.06 0.04 0.06 0.06 0.08 0.09 0.09 0.11 0.10 0.11 0.11 0.12 0.13 0.14 0.14 0.13 0.15 0.19 0.19 0.19 0.19 0.18 0.15 0.13 0.12 0.14 0.11
0.00 0.00 0.00 0.00 0.00 0.01 0.04 0.09 0.16 0.15 0.19 0.27 0.33 0.49 0.59 0.58 0.57 0.48 0.28 0.26 0.28 0.19 0.11 0.07 0.07 0.09 0.12 0.14 0.16 0.17 0.17 0.17 0.17 0.18 0.20 0.19 0.18 0.19 0.19 0.20 0.22 0.21 0.21 0.19 0.17 0.17 0.15 0.13 0.12
0.00 0.00 0.00 0.00 0.01 0.02 0.04 0.10 0.15 0.19 0.21 0.21 0.34 0.61 0.96 0.89 0.70 0.72 0.57 0.39 0.37 0.24 0.15 0.12 0.10 0.12 0.17 0.21 0.23 0.26 0.23 0.20 0.20 0.22 0.24 0.21 0.18 0.18 0.18 0.18 0.19 0.21 0.23 0.23 0.17 0.12 0.09 0.08 0.10
0.00 0.00 0.00 0.00 0.02 0.03 0.05 0.09 0.15 0.17 0.18 0.27 0.50 0.78 1.08 1.05 0.83 0.82 0.80 0.60 0.52 0.37 0.21 0.17 0.13 0.13 0.20 0.28 0.26 0.24 0.23 0.22 0.24 0.28 0.30 0.26 0.21 0.17 0.16 0.19 0.20 0.21 0.21 0.17 0.11 0.07 0.06 0.06 0.07
0.00 0.00 0.00 0.00 0.01 0.04 0.07 0.08 0.12 0.16 0.24 0.40 0.65 0.77 1.02 1.13 0.99 0.81 0.75 0.64 0.57 0.52 0.35 0.28 0.26 0.24 0.24 0.26 0.27 0.27 0.26 0.27 0.27 0.28 0.26 0.23 0.17 0.16 0.17 0.17 0.18 0.18 0.19 0.18 0.14 0.10 0.09 0.09 0.08
0.00 0.00 0.00 0.01 0.02 0.04 0.06 0.09 0.10 0.13 0.20 0.37 0.47 0.58 0.87 0.98 0.91 0.89 0.85 0.72 0.64 0.57 0.51 0.46 0.41 0.38 0.34 0.29 0.25 0.28 0.25 0.26 0.24 0.21 0.19 0.19 0.21 0.27 0.27 0.23 0.22 0.23 0.23 0.22 0.18 0.16 0.14 0.12 0.10
0.00 0.00 0.00 0.01 0.02 0.03 0.06 0.08 0.09 0.12 0.16 0.29 0.44 0.52 0.66 0.87 0.98 1.03 1.04 0.92 0.82 0.76 0.74 0.70 0.69 0.62 0.54 0.48 0.47 0.44 0.37 0.33 0.27 0.30 0.26 0.27 0.51 0.61 0.52 0.52 0.42 0.37 0.32 0.26 0.24 0.22 0.19 0.17 0.16
0.00 0.00 0.01 0.01 0.02 0.03 0.06 0.08 0.08 0.12 0.23 0.30 0.52 0.84 0.82 0.89 1.07 1.24 1.25 1.22 1.24 1.15 0.88 0.80 0.90 0.89 0.95 0.99 0.79 0.75 0.75 0.65 0.51 0.64 0.60 0.62 0.78 0.73 0.72 0.78 0.64 0.53 0.45 0.42 0.44 0.32 0.27 0.26 0.30
0.00 0.01 0.02 0.01 0.01 0.02 0.04 0.09 0.12 0.15 0.32 0.41 0.60 0.89 1.20 1.18 1.33 1.32 1.38 1.49 1.46 1.49 1.25 1.00 0.93 0.91 1.04 1.16 1.08 1.03 1.00 0.92 0.83 0.88 0.75 0.84 0.96 1.05 1.13 1.27 1.11 1.00 0.90 0.85 0.74 0.65 0.50 0.45 0.46
0.00 0.00 0.01 0.02 0.02 0.01 0.05 0.08 0.14 0.15 0.17 0.38 0.58 0.72 1.11 1.11 1.16 1.31 1.55 1.92 1.99 1.81 1.59 1.32 1.12 1.09 1.17 1.29 1.31 1.25 1.22 1.17 1.21 1.30 1.11 1.11 1.07 1.17 1.46 1.52 1.65 1.40 1.36 1.29 1.15 0.98 0.90 0.78 0.69
0.00 0.00 0.00 0.01 0.01 0.03 0.07 0.09 0.12 0.11 0.11 0.21 0.34 0.48 0.78 0.94 1.21 1.55 1.81 2.13 2.49 2.31 1.91 1.65 1.50 1.34 1.23 1.22 1.31 1.31 1.28 1.40 1.48 1.61 1.52 1.48 1.49 1.63 1.98 2.05 1.95 1.74 1.78 1.86 1.84 1.64 1.41 1.20 1.11
0.00 0.00 0.01 0.01 0.01 0.02 0.04 0.08 0.09 0.11 0.13 0.18 0.26 0.41 0.62 0.97 1.20 1.70 2.10 2.32 2.63 2.37 2.26 2.06 1.90 1.75 1.46 1.31 1.42 1.51 1.43 1.46 1.53 1.74 1.86 1.83 1.85 2.09 2.16 2.40 2.36 2.17 2.10 2.04 1.98 2.09 2.05 1.72 1.46
0.00 0.00 0.01 0.02 0.01 0.02 0.03 0.09 0.11 0.12 0.14 0.19 0.27 0.43 0.59 0.87 1.13 1.36 1.71 2.03 2.50 2.53 2.24 2.20 1.93 1.71 1.74 1.65 1.78 1.84 1.95 2.02 1.95 2.00 2.28 2.37 2.36 2.40 2.43 2.46 2.46 2.37 2.33 2.52 2.58 2.48 2.42 2.30 2.04
0.01 0.00 0.01 0.02 0.02 0.03 0.03 0.10 0.17 0.11 0.12 0.18 0.26 0.47 0.77 0.83 0.99 1.10 1.38 1.60 1.95 2.01 2.03 2.05 1.98 1.80 1.73 1.93 2.22 2.35 2.54 2.76 2.88 2.86 3.06 3.03 2.84 2.80 2.89 2.95 2.98 2.83 2.85 2.81 2.70 2.84 2.74 2.64 2.42
0.00 0.02 0.02 0.02 0.02 0.03 0.03 0.07 0.17 0.19 0.21 0.27 0.32 0.43 0.70 0.80 1.05 1.28 1.36 1.39 1.70 1.79 1.87 1.99 2.14 2.20 2.06 2.08 2.31 2.69 2.86 3.05 3.41 3.48 3.55 3.62 3.63 3.57 3.57 3.53 3.52 3.37 3.25 3.11 3.03 2.99 2.77 2.64 2.41
0.00 0.01 0.02 0.02 0.02 0.02 0.05 0.11 0.17 0.21 0.25 0.35 0.43 0.50 0.61 0.78 1.13 1.45 1.52 1.57 1.80 2.02 2.19 2.11 2.17 2.37 2.52 2.76 2.77 2.91 3.24 3.61 3.81 4.00 4.12 4.11 4.04 4.03 3.86 3.74 3.78 3.60 3.42 3.23 3.08 2.98 2.89 2.60 2.36
0.00 0.00 0.01 0.03 0.04 0.04 0.08 0.18 0.25 0.28 0.29 0.37 0.50 0.56 0.57 0.70 0.98 1.39 1.50 1.65 1.85 2.02 2.22 2.33 2.40 2.73 3.19 3.60 3.99 4.34 4.61 4.59 4.74 4.78 4.75 4.59 4.46 4.35 4.15 4.09 3.98 3.75 3.55 3.31 3.09 2.95 2.91 2.68 2.48
0.00 0.00 0.01 0.03 0.06 0.09 0.13 0.28 0.36 0.39 0.45 0.50 0.57 0.62 0.69 0.82 1.00 1.17 1.38 1.63 1.86 2.03 2.27 2.44 2.70 3.31 4.10 4.47 4.76 5.28 5.57 5.37 5.16 4.93 4.83 4.73 4.71 4.70 4.52 4.39 4.12 3.86 3.57 3.30 3.04 2.85 2.78 2.70 2.57
0.00 0.01 0.01 0.03 0.05 0.11 0.14 0.34 0.54 0.59 0.66 0.61 0.70 0.83 0.95 0.99 1.07 1.22 1.41 1.67 1.98 2.28 2.39 2.55 3.01 3.73 4.37 4.82 5.36 5.88 6.10 6.10 5.93 5.44 4.99 4.54 4.20 4.01 3.92 3.86 3.69 3.46 3.19 3.00 2.77 2.57 2.48 2.57 2.46
0.01 0.01 0.01 0.04 0.05 0.09 0.12 0.29 0.64 0.83 0.89 0.87 0.93 0.94 0.97 1.00 1.11 1.25 1.39 1.59 1.79 2.07 2.47 2.71 3.19 3.84 4.50 5.17 5.82 6.18 6.38 6.34 5.91 5.12 4.37 3.91 3.61 3.33 3.12 3.01 2.91 2.77 2.64 2.49 2.42 2.36 2.25 2.20 2.11
0.01 0.01 0.02 0.04 0.06 0.11 0.11 0.25 0.70 1.04 1.21 1.23 1.14 1.09 1.05 0.99 1.03 1.13 1.31 1.40 1.68 1.96 2.24 2.64 2.93 3.53 4.19 4.75 5.24 5.37 5.51 5.44 5.01 4.54 4.04 3.64 3.19 2.70 2.35 2.17 2.07 1.98 1.91 1.92 1.95 1.97 1.93 1.87 1.83
0.01 0.02 0.08 0.16 0.19 0.19 0.15 0.32 0.77 1.10 1.13 1.08 1.11 1.19 1.15 1.00 1.04 1.22 1.45 1.37 1.58 1.83 2.13 2.50 2.89 3.27 3.75 4.22 4.64 4.87 4.99 4.81 4.36 3.91 3.51 3.06 2.58 2.17 1.83 1.65 1.59 1.55 1.52 1.48 1.51 1.55 1.54 1.53 1.53
0.01 0.03 0.15 0.26 0.30 0.32 0.33 0.58 0.98 1.06 0.99 0.94 0.94 0.99 1.08 1.08 1.05 1.10 1.24 1.30 1.50 1.68 1.94 2.28 2.59 2.89 3.07 3.24 3.55 3.77 3.92 3.78 3.45 2.98 2.52 2.22 1.96 1.70 1.48 1.32 1.26 1.15 1.05 1.03 1.09 1.13 1.15 1.17 1.25
0.03 0.05 0.11 0.13 0.17 0.34 0.64 0.90 1.24 1.21 1.09 1.00 0.91 0.90 0.95 0.92 0.90 0.96 1.08 1.20 1.40 1.67 1.89 2.14 2.27 2.41 2.55 2.64 2.68 2.72 2.81 2.71 2.48 2.20 1.91 1.64 1.39 1.19 1.05 0.94 0.86 0.82 0.76 0.76 0.81 0.87 0.88 0.92 1.00
0.04 0.06 0.08 0.13 0.29 0.47 0.74 1.16 1.47 1.60 1.49 1.32 1.06 0.96 0.89 0.94 0.95 0.97 1.03 1.12 1.21 1.30 1.54 1.76 1.84 1.90 1.95 1.97 1.99 1.99 1.97 1.90 1.81 1.64 1.44 1.21 1.06 0.91 0.78 0.67 0.60 0.59 0.61 0.64 0.62 0.66 0.69 0.71 0.76
0.06 0.08 0.10 0.15 0.21 0.43 0.79 1.36 1.61 1.87 1.92 1.71 1.37 1.19 1.13 1.13 1.08 1.03 1.04 1.03 1.05 1.06 1.19 1.39 1.53 1.52 1.56 1.61 1.56 1.47 1.50 1.45 1.36 1.29 1.20 1.06 0.96 0.85 0.74 0.65 0.62 0.59 0.56 0.54 0.56 0.57 0.60 0.65 0.68
0.08 0.11 0.16 0.25 0.27 0.30 0.67 1.52 1.91 2.04 1.98 1.70 1.50 1.34 1.28 1.21 1.08 1.00 0.93 0.85 0.85 0.90 0.94 1.02 1.15 1.17 1.17 1.17 1.17 1.19 1.19 1.18 1.12 1.02 0.92 0.79 0.71 0.66 0.60 0.55 0.55 0.54 0.51 0.51 0.51 0.50 0.48 0.47 0.48

GEFSSGP_prec_meanprecacc_156.txt.gz
Total_Precipitation_Accumulation
0.00 0.00 0.00 0.00 0.00 0.00 0.02 0.03 0.05 0.11 0.16 0.15 0.19 0.21 0.27 0.36 0.46 0.97 0.59 0.28 0.16 0.08 0.05 0.04 0.05 0.05 0.06 0.07 0.09 0.10 0.09 0.09 0.09 0.09 0.10 0.11 0.10 0.10 0.10 0.10 0.13 0.19 0.23 0.21 0.19 0.19 0.20 0.18 0.13
0.00 0.00 0.00 0.00 0.00 0.01 0.04 0.04 0.07 0.13 0.16 0.17 0.18 0.20 0.23 0.28 0.20 0.16 0.17 0.17 0.17 0.08 0.05 0.04 0.05 0.05 0.06 0.06 0.09 0.11 0.11 0.09 0.09 0.09 0.09 0.10 0.09 0.09 0.09 0.11 0.14 0.21 0.26 0.26 0.24 0.22 0.20 0.17 0.13
0.00 0.00 0.00 0.00 0.00 0.01 0.07 0.09 0.10 0.14 0.14 0.15 0.23 0.30 0.32 0.38 0.31 0.19 0.16 0.17 0.19 0.10 0.06 0.04 0.05 0.05 0.06 0.07 0.08 0.11 0.12 0.10 0.09 0.10 0.10 0.10 0.10 0.10 0.12 0.14 0.14 0.17 0.22 0.22 0.17 0.15 0.15 0.15 0.12
0.00 0.00 0.00 0.00 0.00 0.02 0.05 0.10 0.14 0.13 0.16 0.19 0.25 0.39 0.37 0.39 0.34 0.26 0.20 0.22 0.20 0.14 0.07 0.04 0.06 0.07 0.08 0.10 0.10 0.12 0.11 0.11 0.12 0.12 0.14 0.14 0.14 0.13 0.16 0.19 0.20 0.19 0.20 0.18 0.16 0.15 0.14 0.15 0.12
0.00 0.00 0.00 0.00 0.01 0.03 0.06 0.11 0.17 0.16 0.19 0.27 0.33 0.49 0.60 0.59 0.58 0.48 0.29 0.27 0.29 0.19 0.12 0.07 0.07 0.10 0.12 0.15 0.17 0.19 0.18 0.18 0.18 0.19 0.20 0.20 0.18 0.19 0.20 0.21 0.22 0.21 0.21 0.19 0.18 0.19 0.17 0.15 0.13
0.00 0.00 0.00 0.00 0.01 0.03 0.05 0.12 0.17 0.20 0.21 0.22 0.34 0.62 0.97 0.90 0.71 0.72 0.57 0.39 0.37 0.25 0.15 0.13 0.10 0.13 0.19 0.22 0.25 0.27 0.25 0.22 0.22 0.24 0.25 0.22 0.19 0.18 0.18 0.18 0.20 0.22 0.25 0.24 0.19 0.13 0.11 0.09 0.11
0.00 0.00 0.00 0.01 0.02 0.04 0.05 0.10 0.16 0.18 0.18 0.28 0.51 0.80 1.08 1.06 0.84 0.82 0.81 0.60 0.53 0.38 0.23 0.19 0.15 0.14 0.21 0.29 0.27 0.26 0.24 0.24 0.25 0.30 0.32 0.27 0.22 0.18 0.18 0.20 0.22 0.22 0.23 0.19 0.13 0.08 0.07 0.06 0.07
0.00 0.00 0.00 0.00 0.02 0.04 0.07 0.09 0.13 0.16 0.25 0.43 0.67 0.80 1.03 1.14 0.99 0.82 0.77 0.66 0.60 0.55 0.38 0.31 0.29 0.26 0.26 0.27 0.28 0.28 0.26 0.28 0.28 0.29 0.27 0.24 0.19 0.18 0.19 0.19 0.20 0.19 0.20 0.19 0.15 0.11 0.10 0.09 0.08
0.00 0.00 0.00 0.01 0.03 0.05 0.07 0.09 0.11 0.15 0.24 0.44 0.52 0.60 0.87 0.99 0.92 0.91 0.88 0.76 0.67 0.60 0.54 0.50 0.45 0.42 0.37 0.31 0.26 0.29 0.26 0.27 0.26 0.23 0.20 0.20 0.24 0.31 0.31 0.25 0.24 0.24 0.24 0.23 0.19 0.17 0.15 0.13 0.11
0.00 0.00 0.00 0.02 0.05 0.08 0.09 0.09 0.10 0.13 0.19 0.33 0.49 0.56 0.67 0.87 0.98 1.04 1.06 0.95 0.86 0.82 0.78 0.74 0.72 0.66 0.57 0.51 0.49 0.46 0.38 0.34 0.30 0.33 0.28 0.30 0.56 0.65 0.56 0.57 0.45 0.40 0.34 0.28 0.26 0.24 0.21 0.18 0.19
0.00 0.00 0.01 0.02 0.03 0.05 0.08 0.09 0.10 0.14 0.25 0.34 0.61 0.89 0.83 0.89 1.08 1.25 1.26 1.25 1.28 1.20 0.94 0.85 0.95 0.94 0.99 1.05 0.86 0.81 0.78 0.68 0.54 0.67 0.64 0.66 0.84 0.78 0.78 0.83 0.70 0.56 0.48 0.46 0.50 0.37 0.31 0.29 0.34
0.00 0.02 0.02 0.02 0.01 0.03 0.05 0.11 0.17 0.19 0.35 0.48 0.73 0.98 1.22 1.18 1.34 1.33 1.40 1.51 1.48 1.52 1.29 1.05 0.98 0.96 1.08 1.22 1.16 1.10 1.05 0.98 0.89 0.93 0.80 0.91 1.04 1.12 1.21 1.36 1.20 1.07 0.96 0.92 0.83 0.73 0.57 0.51 0.50
0.00 0.01 0.02 0.02 0.02 0.01 0.06 0.13 0.18 0.19 0.18 0.40 0.62 0.78 1.15 1.12 1.17 1.33 1.58 1.95 2.02 1.85 1.63 1.37 1.16 1.14 1.22 1.35 1.38 1.32 1.30 1.26 1.30 1.40 1.21 1.20 1.17 1.27 1.56 1.61 1.74 1.47 1.43 1.36 1.24 1.06 0.99 0.86 0.75
0.00 0.00 0.00 0.01 0.02 0.03 0.08 0.13 0.16 0.12 0.12 0.21 0.37 0.55 0.81 0.96 1.23 1.57 1.84 2.15 2.53 2.34 1.96 1.70 1.56 1.40 1.29 1.28 1.38 1.39 1.37 1.50 1.58 1.72 1.62 1.57 1.60 1.74 2.09 2.15 2.06 1.81 1.84 1.93 1.92 1.72 1.51 1.30 1.20
0.01 0.00 0.01 0.01 0.01 0.02 0.05 0.13 0.14 0.15 0.15 0.19 0.27 0.43 0.64 0.99 1.23 1.73 2.12 2.35 2.66 2.41 2.31 2.11 1.96 1.84 1.55 1.38 1.49 1.60 1.52 1.56 1.63 1.85 1.96 1.93 1.96 2.20 2.27 2.51 2.46 2.25 2.17 2.13 2.07 2.19 2.16 1.81 1.54
0.00 0.00 0.01 0.02 0.01 0.02 0.03 0.11 0.14 0.15 0.15 0.19 0.27 0.45 0.64 0.93 1.17 1.38 1.73 2.06 2.53 2.56 2.28 2.25 1.99 1.80 1.83 1.75 1.87 1.93 2.03 2.11 2.05 2.09 2.37 2.46 2.45 2.50 2.54 2.56 2.56 2.46 2.42 2.62 2.67 2.57 2.51 2.38 2.13
0.01 0.01 0.01 0.02 0.02 0.03 0.03 0.11 0.20 0.13 0.13 0.19 0.27 0.48 0.81 0.91 1.04 1.13 1.40 1.63 1.97 2.05 2.08 2.11 2.04 1.87 1.84 2.03 2.34 2.48 2.65 2.86 2.97 2.95 3.16 3.12 2.93 2.91 3.01 3.05 3.07 2.92 2.94 2.90 2.76 2.93 2.82 2.72 2.51
0.01 0.02 0.02 0.02 0.02 0.04 0.04 0.10 0.21 0.23 0.25 0.29 0.34 0.44 0.72 0.86 1.12 1.34 1.42 1.41 1.71 1.80 1.91 2.04 2.20 2.26 2.14 2.18 2.41 2.80 2.98 3.16 3.52 3.59 3.66 3.72 3.74 3.70 3.70 3.62 3.60 3.46 3.36 3.21 3.12 3.07 2.86 2.71 2.48
0.00 0.01 0.02 0.02 0.03 0.04 0.09 0.16 0.21 0.24 0.28 0.37 0.45 0.52 0.62 0.80 1.17 1.54 1.64 1.63 1.83 2.05 2.23 2.15 2.21 2.42 2.59 2.85 2.88 3.02 3.37 3.73 3.91 4.11 4.22 4.21 4.14 4.13 3.99 3.87 3.89 3.71 3.53 3.33 3.19 3.08 2.99 2.70 2.45
0.00 0.00 0.01 0.03 0.04 0.06 0.12 0.22 0.26 0.29 0.30 0.38 0.51 0.58 0.60 0.77 1.06 1.48 1.63 1.79 1.91 2.07 2.27 2.39 2.46 2.80 3.29 3.73 4.14 4.50 4.78 4.74 4.85 4.89 4.85 4.67 4.54 4.42 4.22 4.18 4.07 3.83 3.64 3.39 3.17 3.04 3.01 2.78 2.59
0.00 0.00 0.01 0.03 0.06 0.09 0.14 0.30 0.38 0.41 0.46 0.51 0.58 0.64 0.71 0.89 1.13 1.30 1.51 1.77 1.97 2.11 2.33 2.53 2.84 3.44 4.24 4.65 4.98 5.47 5.77 5.55 5.31 5.04 4.93 4.81 4.78 4.77 4.58 4.45 4.17 3.91 3.62 3.35 3.10 2.92 2.86 2.77 2.66
0.01 0.01 0.01 0.03 0.06 0.11 0.15 0.36 0.57 0.62 0.69 0.64 0.72 0.85 0.98 1.05 1.18 1.36 1.55 1.84 2.14 2.40 2.47 2.69 3.23 3.91 4.52 4.98 5.54 6.06 6.27 6.30 6.11 5.56 5.08 4.62 4.26 4.05 3.96 3.89 3.72 3.50 3.23 3.04 2.81 2.63 2.54 2.64 2.54
0.01 0.01 0.01 0.04 0.05 0.09 0.13 0.30 0.67 0.88 0.94 0.91 0.96 0.96 1.02 1.05 1.15 1.33 1.55 1.73 1.89 2.16 2.55 2.82 3.33 3.98 4.61 5.27 5.94 6.33 6.53 6.49 6.07 5.25 4.47 3.98 3.66 3.37 3.15 3.04 2.94 2.81 2.68 2.54 2.47 2.41 2.30 2.27 2.20
0.01 0.01 0.02 0.04 0.06 0.12 0.13 0.27 0.75 1.10 1.28 1.29 1.18 1.12 1.07 1.01 1.06 1.18 1.38 1.49 1.76 2.02 2.31 2.72 3.02 3.63 4.30 4.85 5.35 5.49 5.64 5.57 5.12 4.62 4.11 3.69 3.24 2.74 2.39 2.21 2.10 2.02 1.95 1.96 1.99 2.02 1.98 1.93 1.89
0.01 0.02 0.10 0.18 0.21 0.21 0.16 0.34 0.81 1.14 1.16 1.15 1.15 1.20 1.16 1.02 1.07 1.28 1.52 1.46 1.66 1.92 2.22 2.60 3.00 3.37 3.85 4.33 4.76 4.98 5.10 4.93 4.45 4.00 3.58 3.11 2.64 2.21 1.87 1.68 1.61 1.57 1.55 1.50 1.54 1.58 1.59 1.58 1.58
0.01 0.04 0.16 0.30 0.33 0.35 0.35 0.61 1.01 1.08 1.01 0.97 0.96 1.00 1.10 1.10 1.08 1.13 1.30 1.35 1.57 1.76 2.01 2.34 2.66 2.97 3.15 3.32 3.64 3.87 4.03 3.90 3.54 3.07 2.59 2.29 2.02 1.75 1.52 1.35 1.27 1.17 1.07 1.05 1.12 1.16 1.19 1.21 1.30
0.03 0.05 0.11 0.14 0.18 0.36 0.66 0.94 1.29 1.25 1.14 1.04 0.93 0.91 0.97 0.94 0.93 1.00 1.12 1.23 1.44 1.69 1.93 2.18 2.32 2.47 2.62 2.71 2.76 2.79 2.90 2.82 2.56 2.27 1.98 1.70 1.44 1.23 1.08 0.96 0.88 0.84 0.79 0.79 0.84 0.90 0.92 0.96 1.04
0.04 0.06 0.08 0.14 0.32 0.51 0.77 1.22 1.56 1.69 1.58 1.41 1.10 0.98 0.92 0.98 0.98 1.00 1.06 1.14 1.24 1.33 1.58 1.82 1.90 1.98 2.03 2.04 2.06 2.05 2.04 1.96 1.87 1.70 1.49 1.26 1.09 0.94 0.81 0.69 0.62 0.62 0.64 0.67 0.66 0.70 0.73 0.74 0.80
0.07 0.08 0.11 0.16 0.24 0.49 0.84 1.42 1.68 1.95 2.02 1.81 1.46 1.27 1.23 1.22 1.14 1.08 1.08 1.06 1.09 1.12 1.25 1.46 1.61 1.60 1.65 1.71 1.67 1.57 1.58 1.51 1.42 1.35 1.24 1.09 0.99 0.88 0.77 0.68 0.64 0.62 0.59 0.58 0.60 0.61 0.64 0.69 0.71
0.08 0.11 0.17 0.29 0.31 0.34 0.72 1.60 1.97 2.09 2.02 1.74 1.54 1.38 1.32 1.24 1.11 1.03 0.98 0.89 0.89 0.95 1.00 1.11 1.24 1.25 1.27 1.31 1.32 1.35 1.29 1.25 1.18 1.07 0.96 0.82 0.75 0.69 0.63 0.57 0.57 0.56 0.54 0.54 0.55 0.53 0.51 0.51 0.52